Probability
17 17 17 17 17 15 11 10 11 11 11 11 13 13 12 11 13 14 16 18 17 14 14 15 15 17 19 19 18 19 18 15 12 12 13 16 19 17 14 15 14 12 11
17 18 18 19 18 16 14 13 13 13 12 13 13 12 11 12 14 15 15 16 17 16 17 17 16 18 19 20 19 19 19 16 13 11 11 15 18 17 15 14 13 11 11
19 20 21 20 19 17 16 16 16 16 15 14 12 10 10 12 14 15 14 16 19 21 21 20 18 17 18 19 20 20 19 18 15 12 10 14 16 17 15 12 10 11 11
24 24 24 22 20 18 17 17 18 18 16 14 11 9 9 10 12 14 15 18 21 23 23 22 20 18 17 17 19 20 20 20 19 16 12 13 15 15 14 10 9 12 14
28 26 25 24 21 18 18 19 19 18 17 15 13 11 10 10 12 15 18 19 19 20 21 22 21 20 17 16 16 18 20 21 21 18 15 14 16 18 16 13 12 15 16
31 28 25 22 20 19 20 21 21 22 21 19 17 15 15 13 12 12 15 16 16 16 18 20 20 18 16 15 13 13 15 17 19 19 18 18 21 23 22 21 19 19 19
35 31 24 21 20 21 23 24 25 25 25 23 21 21 20 17 11 7 8 13 15 16 17 19 18 17 17 17 14 12 12 14 17 20 21 23 26 27 28 26 25 24 23
35 32 27 23 24 25 27 28 29 29 27 25 24 25 25 20 11 5 5 10 14 16 18 19 19 20 21 20 19 18 19 20 18 18 21 24 25 26 27 26 25 24 23
35 33 29 27 28 30 32 34 35 33 31 29 28 28 28 22 13 6 4 9 14 17 19 20 21 22 21 21 23 26 28 26 20 15 15 17 17 17 20 22 22 21 20
35 33 31 31 33 35 36 37 38 36 34 33 33 31 28 24 15 6 5 11 16 19 21 21 19 17 15 15 20 26 29 28 24 20 16 15 16 16 17 20 21 20 18
34 31 31 34 35 35 35 37 37 36 34 33 31 27 25 21 15 7 6 11 17 20 20 20 17 12 7 6 12 20 22 23 27 27 24 23 22 22 22 22 23 24 23
30 28 27 30 32 31 31 33 34 34 32 30 26 24 22 19 14 9 5 6 11 15 17 16 14 9 3 1 5 9 10 13 22 26 25 23 22 23 24 24 25 26 28
27 25 23 24 27 28 28 28 29 31 30 27 25 24 23 21 17 12 7 4 5 9 12 11 9 5 2 1 2 2 3 8 14 18 19 19 19 19 21 21 21 22 23
24 23 23 23 25 26 26 25 25 26 26 25 24 24 24 21 18 15 11 9 7 7 9 9 8 6 5 5 5 4 5 7 9 12 14 17 18 18 17 15 14 14 13
22 23 23 22 22 23 24 22 20 20 20 19 20 21 20 17 14 12 11 11 10 8 8 11 12 11 11 12 14 13 12 9 7 7 10 12 14 14 13 13 12 10 8
22 23 22 20 20 22 23 21 17 14 12 11 12 14 13 10 7 6 6 7 7 6 8 13 16 16 17 19 19 19 16 12 9 8 8 9 9 10 11 12 13 10 7
22 23 23 21 21 23 22 20 18 14 9 6 5 6 6 4 2 2 2 2 2 3 7 11 16 20 22 22 21 20 17 15 13 11 10 9 8 9 10 11 11 8 7
22 23 23 21 20 20 19 18 17 16 12 7 4 2 2 1 0 0 0 0 1 2 6 9 13 17 20 21 21 20 18 17 16 14 11 9 8 8 9 9 9 6 5
20 21 21 20 18 17 16 16 15 14 11 9 7 4 2 1 1 1 0 1 3 5 7 8 9 11 14 16 16 17 18 18 17 15 11 9 9 9 9 9 7 6 5
17 17 17 17 17 17 16 15 13 11 8 7 7 5 4 3 3 3 3 3 4 6 8 9 8 8 9 11 12 13 14 16 16 15 12 11 10 11 11 9 7 6 6
12 10 10 12 13 14 13 12 10 9 8 7 6 4 3 3 4 5 5 4 4 6 8 9 8 7 7 9 9 9 9 9 10 11 11 11 11 11 10 9 8 7 7
7 5 4 5 6 7 7 6 5 5 5 5 4 3 2 2 3 4 5 5 5 6 7 7 6 6 6 5 4 3 3 3 3 4 6 8 10 10 9 8 8 7 7
2 1 1 1 1 1 1 1 1 1 1 2 1 1 0 1 1 2 4 5 6 6 6 5 4 4 3 2 1 0 0 0 0 0 1 3 7 8 7 6 6 6 6
0 0 0 0 0 0 0 0 0 0 0 0 0 0 0 0 0 1 2 4 5 5 5 4 3 2 1 0 0 0 0 0 0 0 0 1 2 4 4 4 4 4 4
0 0 0 0 0 0 0 0 0 0 0 0 0 0 0 0 0 0 1 2 3 3 2 2 1 0 0 0 0 0 0 0 0 0 0 0 0 1 1 2 2 1 1
0 0 0 0 0 0 0 0 0 0 0 0 0 0 0 0 0 1 1 1 1 1 0 0 0 0 0 0 0 0 0 0 0 0 0 0 0 0 0 1 1 0 0
Wind_Speed
8 8 7 6 6 6 5 5 5 4 4 4 5 5 5 5 5 5 5 5 5 5 5 6 6 6 5 4 4 5 5 5 5 3 2 3 4 4 4 4 5 5 5
8 7 7 6 6 6 6 5 5 4 4 4 4 5 5 5 4 5 6 6 6 6 6 6 6 5 5 5 4 5 4 4 5 4 3 4 5 5 5 5 5 5 4
8 8 7 7 6 6 5 5 5 5 4 4 4 4 4 4 5 5 6 6 6 6 6 6 6 6 6 5 5 5 5 5 5 5 5 3 4 4 5 5 6 5 5
8 8 7 7 7 6 6 5 5 5 5 5 4 4 4 5 5 5 5 6 6 6 6 6 6 7 7 7 6 6 6 5 5 6 5 4 4 4 5 5 5 5 5
7 7 7 7 6 6 5 5 5 5 5 5 5 4 4 5 5 5 6 6 6 6 6 6 6 5 5 5 5 5 5 5 5 5 5 4 4 4 5 5 5 5 5
7 7 6 6 6 6 6 5 5 5 5 5 5 5 5 4 2 2 5 5 5 6 6 6 6 6 6 6 6 5 5 6 6 5 5 5 6 6 5 5 5 5 5
6 6 5 5 5 5 5 5 5 5 5 5 5 5 5 4 3 4 5 6 6 6 6 6 5 4 5 6 6 7 8 7 7 8 8 7 6 6 6 8 7 7 6
6 5 5 6 6 5 5 5 4 4 4 4 4 5 4 4 3 4 5 7 7 6 6 6 6 5 5 5 6 7 8 8 9 9 9 8 8 6 7 8 7 7 7
5 5 5 5 5 5 5 4 4 3 3 4 4 4 4 3 2 4 5 6 5 6 6 6 6 6 4 4 7 7 8 7 8 8 8 7 6 6 6 6 7 7 7
4 4 4 4 4 4 4 4 3 4 4 4 3 3 4 3 2 3 5 5 5 5 5 5 5 5 4 5 8 8 9 8 7 7 8 9 9 9 10 10 8 8 8
3 3 3 3 3 3 3 2 3 3 3 3 3 3 3 3 3 4 4 5 5 5 5 5 3 4 5 6 8 8 7 7 8 8 7 7 7 7 8 9 8 8 9
3 3 3 3 2 2 2 2 3 3 3 4 3 3 2 2 2 3 5 6 6 6 5 5 2 2 5 7 7 6 6 8 7 6 6 6 6 6 6 7 9 9 9
3 3 2 2 1 1 2 2 3 3 3 2 2 2 2 2 2 4 6 6 7 6 5 4 4 4 6 7 8 8 7 6 6 6 6 6 6 6 5 6 7 8 10
3 2 2 2 2 2 2 2 1 1 2 2 2 3 2 2 1 1 2 3 4 5 5 4 6 8 7 5 5 6 6 5 6 6 6 6 5 5 6 6 6 6 7
2 2 2 2 2 2 2 0 1 1 1 2 2 3 3 3 2 3 3 3 3 3 4 4 4 3 4 4 4 4 4 5 6 6 6 6 5 5 6 5 5 6 7
1 1 1 1 1 2 2 1 2 1 2 1 2 4 2 2 2 3 3 4 4 4 4 4 4 4 4 4 4 4 4 5 5 5 6 6 6 6 6 5 6 7 7
1 1 1 0 0 0 0 1 1 2 2 2 3 2 2 2 2 3 4 4 4 4 3 3 4 4 5 5 4 4 4 4 4 5 6 6 5 6 6 6 6 6 7
1 0 1 1 1 1 1 1 1 1 1 1 1 2 1 1 2 2 3 3 2 3 3 3 4 4 5 5 5 4 4 4 4 4 5 5 5 6 6 6 6 7 7
2 2 2 1 1 1 1 1 1 1 2 2 2 1 1 1 2 1 2 3 4 3 3 3 4 5 5 5 5 5 5 5 5 5 5 5 5 6 6 6 6 6 7
2 3 1 1 1 1 1 1 1 1 1 2 2 2 2 2 2 1 2 3 4 4 4 4 4 5 5 5 5 5 5 5 5 6 5 5 5 6 6 7 7 6 7
2 2 1 1 1 2 2 2 2 2 2 2 3 3 4 4 3 4 3 3 4 4 5 5 5 5 5 5 5 5 7 6 5 6 6 6 6 6 6 7 7 7 7
1 1 2 2 2 3 3 3 3 3 3 4 3 2 1 3 3 4 4 4 4 4 4 5 5 5 5 5 5 5 6 6 6 6 6 6 6 7 7 7 7 7 7
1 2 2 2 2 2 2 2 3 3 3 4 4 4 4 4 4 4 4 4 4 4 4 4 5 5 5 5 5 5 5 6 6 7 8 7 7 6 7 7 8 8 7
2 2 2 2 2 2 3 3 3 3 3 3 3 4 4 4 4 5 5 5 5 4 4 5 5 6 7 6 5 5 5 6 8 7 9 9 9 7 7 7 8 9 8
2 2 2 2 2 3 3 3 3 3 4 4 4 4 4 5 5 4 4 4 5 4 5 5 4 5 7 8 7 6 6 7 7 8 8 8 9 9 8 8 7 7 8
3 3 2 2 2 2 3 3 4 4 4 4 4 4 5 5 5 5 5 5 5 5 5 5 5 6 7 6 7 7 5 5 7 8 8 7 7 7 8 7 8 7 8
Wind_Direction
191 192 198 197 202 208 213 218 218 221 217 219 220 223 225 228 224 223 236 227 232 238 241 241 245 258 254 248 242 243 241 247 253 250 220 184 192 208 186 207 209 211 190
189 190 196 199 203 208 210 216 216 217 220 218 221 222 225 228 228 229 239 239 236 238 239 245 250 244 242 255 251 245 242 243 249 244 228 207 206 206 201 217 218 220 217
186 190 191 195 199 207 215 215 217 219 222 226 227 232 234 235 233 235 242 248 246 245 242 242 246 246 245 244 248 250 245 236 238 240 230 214 213 207 206 219 222 227 227
186 189 189 195 200 203 207 211 215 218 222 228 228 233 239 241 238 238 237 243 249 250 248 244 243 244 246 244 240 244 249 247 235 239 232 220 215 201 216 222 223 219 227
184 191 192 195 198 204 207 213 214 216 219 219 225 230 239 241 243 242 242 238 244 248 248 248 247 249 261 259 262 248 241 244 238 235 233 230 224 208 221 226 233 231 227
185 192 190 195 200 205 208 212 211 215 223 221 229 231 236 239 206 221 251 251 248 248 248 246 240 230 230 231 251 260 260 249 249 247 239 237 234 229 229 233 233 234 237
182 187 187 198 206 211 211 208 210 214 220 225 229 230 233 236 204 208 233 252 251 250 250 250 254 235 225 232 218 222 236 245 253 258 258 254 245 232 230 232 232 240 250
177 182 184 193 199 200 203 204 203 204 210 219 227 234 236 239 205 222 236 242 251 251 249 245 250 252 244 244 236 231 234 230 229 235 249 255 256 245 234 240 244 242 245
180 187 191 194 198 196 201 202 201 198 209 218 224 230 239 245 205 218 239 244 244 247 247 245 249 247 229 236 241 240 243 240 223 224 237 243 248 242 239 242 236 238 244
180 188 191 192 199 201 202 204 199 195 204 218 222 229 239 251 201 208 236 249 250 252 244 239 229 248 228 223 240 241 243 245 245 229 228 230 233 227 220 232 237 240 245
155 154 160 167 181 186 186 197 209 208 202 217 225 226 231 242 200 191 221 257 264 264 264 258 244 198 220 231 246 252 252 260 253 243 235 233 230 229 224 224 233 241 245
136 142 149 160 172 157 168 184 211 222 208 210 217 234 233 225 226 197 206 233 270 268 269 273 280 201 228 237 242 252 259 260 252 247 242 238 236 234 233 231 232 240 249
132 140 151 161 157 160 184 190 204 213 232 226 225 232 239 238 195 190 207 228 243 260 278 304 295 256 242 236 228 235 240 245 250 249 250 247 245 242 240 235 233 235 242
144 155 173 175 174 168 209 202 225 236 247 253 263 267 262 254 270 251 240 239 235 247 267 261 237 239 243 253 240 228 235 245 249 251 253 255 254 246 239 236 239 235 239
172 186 197 191 178 192 186 138 245 7 352 291 282 281 288 283 331 340 300 287 289 290 283 271 273 265 258 252 250 246 240 236 240 248 252 250 248 247 246 242 241 243 244
232 222 221 215 188 201 179 156 91 110 107 164 299 305 314 338 330 300 284 283 285 274 268 268 274 273 273 274 269 255 246 246 250 252 253 252 252 250 248 245 241 243 246
307 297 278 295 274 264 225 238 220 168 173 196 220 243 266 301 305 295 286 276 260 238 253 270 274 276 277 276 273 269 265 261 256 256 254 252 252 252 251 250 246 246 249
297 70 330 33 25 4 326 301 297 305 281 282 171 156 208 253 276 288 287 277 261 243 267 273 276 278 280 285 286 286 284 278 265 264 262 258 256 255 254 252 250 253 256
14 30 24 20 9 360 335 317 324 334 330 340 0 68 148 233 223 227 242 279 292 285 282 285 287 289 290 291 293 289 285 282 280 274 269 269 263 257 256 256 254 246 250
59 70 9 342 11 25 21 359 355 349 330 332 341 353 355 314 309 297 265 288 293 298 300 297 296 298 297 294 293 291 288 284 279 272 272 269 266 265 261 259 259 256 252
35 81 134 345 23 17 15 6 2 350 342 335 335 10 345 314 316 321 317 317 313 313 313 312 309 306 307 305 304 304 302 297 293 291 285 275 270 268 266 264 261 258 257
28 45 35 26 24 19 6 4 4 1 354 349 343 351 312 303 324 325 323 321 315 313 311 309 306 310 318 316 315 313 309 309 310 304 296 291 286 278 273 267 265 264 261
10 28 37 31 20 31 353 11 10 3 354 347 341 338 334 332 328 326 323 317 312 311 310 307 307 313 321 317 313 310 313 319 319 311 303 294 288 286 283 277 274 271 263
12 17 23 28 17 7 4 0 356 350 344 338 336 332 331 328 324 328 326 322 321 322 324 319 316 322 326 321 314 322 346 339 319 304 302 297 290 281 278 276 276 276 271
10 13 8 8 9 9 5 2 0 357 352 349 345 339 334 332 331 331 333 330 326 325 325 320 318 323 329 332 337 346 356 337 322 316 299 291 290 289 285 279 275 276 273
18 16 14 10 12 12 4 1 1 355 350 349 347 343 338 333 333 337 337 336 331 325 322 319 330 334 331 333 351 355 341 327 320 313 301 293 292 291 294 287 282 275 272